User: anonymous   Login
Location: Sunrise Point
(46.9200°N, 121.5900°W)
Time: 22:16:51
(UTC-07:00)
Language:

Cosmos 2058 - Orbit

View from above orbital plane
View from above orbital plane
View from above satellite
View from above satellite

Ground track
Ground track

The orbit data is extracted from the following two-line orbital elements,

1 20465U 90010A   15180.12997297  .00000639  00000-0  53792-4 0  9996
2 20465 082.4895 218.7668 0015664 189.3011 170.7923 14.96514228377758
Epoch (UTC): 29 June 2015 03:07:09
Eccentricity: 0.0015664
inclination: 82.4895°
perigee height: 567 km
apogee height: 588 km
right ascension of ascending node: 218.7668°
argument of perigee: 189.3011°
revolutions per day: 14.96514228
mean anomaly at epoch: 170.7923°
orbit number at epoch: 37775

The dashed part of the orbit path shows where the satellite is in the earth's shadow,  

DLR